Waarnemingen

Advertentie
Mijn weer
A12-CPP, Nederland (6205): temperatuur & dauwpunt: 14.08.2017 04:00:00 - 20.08.2017 04:00:00 (CEST)A12-CPP, Nederland (6205): windsnelheid & windstoten: 14.08.2017 04:00:00 - 20.08.2017 04:00:00 (CEST)A12-CPP, Nederland (6205): windrichting: 14.08.2017 04:00:00 - 20.08.2017 04:00:00 (CEST)A12-CPP, Nederland (6205): luchtdruk: 14.08.2017 04:00:00 - 20.08.2017 04:00:00 (CEST)A12-CPP, Nederland (6205): zicht: 14.08.2017 04:00:00 - 20.08.2017 04:00:00 (CEST)
Datum & Tijd tt [°C] td [°C] ff [km/u] ff [kn] fx [km/u] fx [kn] dd ppp [hPa] vv [km]
20.08.2017 04:00:00 - - - - - - - - -
20.08.2017 03:00:00 15,6 11,5 39 21 40 21 NNW 1011,1 10
20.08.2017 02:00:00 15,1 13,2 37 20 36 19 NW 1010,8 10
20.08.2017 01:00:00 15,7 12,4 35 19 40 21 W 1010,6 10
20.08.2017 00:00:00 16,0 11,6 37 20 40 21 WZW 1010,4 10
19.08.2017 23:00:00 15,9 11,5 37 20 40 21 W 1010,5 10
19.08.2017 22:00:00 16,2 11,5 37 20 36 19 W 1010,3 10
19.08.2017 21:00:00 15,9 10,9 35 19 36 19 W 1010,0 10
19.08.2017 20:00:00 15,8 10,1 34 18 32 18 WZW 1009,9 10
19.08.2017 19:00:00 15,6 9,3 31 17 32 18 W 1009,7 10
19.08.2017 18:00:00 14,8 10,3 35 19 36 19 W 1009,6 10
19.08.2017 17:00:00 15,6 9,2 37 20 40 21 WZW 1009,4 10
19.08.2017 16:00:00 15,5 9,5 37 20 40 21 W 1009,1 10
19.08.2017 15:00:00 15,3 9,7 37 20 40 21 W 1008,6 10
19.08.2017 14:00:00 15,3 9,9 37 20 36 19 W 1008,3 10
19.08.2017 13:00:00 15,1 10,2 39 21 36 19 WNW 1007,6 10
19.08.2017 12:00:00 15,0 11,1 37 20 - - W 1007,0 10
19.08.2017 11:00:00 15,2 11,3 35 19 36 19 WNW 1006,3 10
19.08.2017 10:00:00 15,0 11,8 24 13 36 19 W 1005,8 7
19.08.2017 09:00:00 15,4 11,5 34 18 36 19 ZZW 1005,3 10
19.08.2017 08:00:00 15,1 10,7 35 19 36 19 ZW 1005,4 10
19.08.2017 07:00:00 15,4 10,9 31 17 36 19 ZW 1005,3 10
19.08.2017 06:00:00 15,6 9,7 34 18 36 19 WZW 1005,2 10
19.08.2017 05:00:00 15,7 9,8 31 17 36 19 WZW 1005,2 10
19.08.2017 04:00:00 15,9 8,8 34 18 32 18 WZW 1005,5 10
19.08.2017 03:00:00 16,0 9,0 29 16 32 18 WZW 1005,6 10
19.08.2017 02:00:00 16,1 9,9 31 17 32 18 WZW 1005,8 10
19.08.2017 01:00:00 16,2 9,5 29 16 32 18 ZW 1005,7 10
19.08.2017 00:00:00 16,3 9,6 29 16 29 16 ZW 1005,9 10
18.08.2017 23:00:00 16,1 10,2 26 14 29 16 ZW 1006,1 10
18.08.2017 22:00:00 16,2 9,7 28 15 29 16 ZW 1006,2 10
18.08.2017 21:00:00 16,3 8,9 29 16 29 16 ZW 1005,9 10
18.08.2017 20:00:00 16,5 10,2 26 14 29 16 ZW 1005,9 10
18.08.2017 19:00:00 16,3 10,0 26 14 29 16 ZW 1005,8 10
18.08.2017 18:00:00 16,0 10,4 28 15 29 16 ZW 1005,7 10
18.08.2017 17:00:00 16,0 10,6 28 15 29 16 WZW 1005,7 10
18.08.2017 16:00:00 15,8 10,8 31 17 29 16 WZW 1005,4 10
18.08.2017 15:00:00 16,2 11,9 29 16 32 18 ZW 1005,3 10
18.08.2017 14:00:00 16,4 12,4 34 18 32 18 ZW 1005,3 10
18.08.2017 13:00:00 16,7 12,9 34 18 40 21 ZW 1005,1 10
18.08.2017 12:00:00 17,3 13,4 35 19 40 21 ZZW 1005,2 10
18.08.2017 11:00:00 17,2 13,6 34 18 36 19 ZZW 1005,4 10
18.08.2017 10:00:00 17,2 14,5 29 16 36 19 ZZW 1005,4 10
18.08.2017 09:00:00 17,3 14,6 29 16 32 18 ZZW 1005,2 10
18.08.2017 08:00:00 17,6 14,8 29 16 32 18 ZZW 1005,4 10
18.08.2017 07:00:00 17,7 15,2 28 15 - - ZZW 1005,6 10
18.08.2017 06:00:00 17,1 15,4 15 8 22 12 - 1005,7 10
18.08.2017 05:00:00 16,6 15,8 18 10 22 12 Z 1006,4 10
18.08.2017 04:00:00 16,5 15,7 16 9 18 10 Z 1006,9 10
18.08.2017 03:00:00 17,1 15,9 13 7 22 12 ZZO 1007,3 10
18.08.2017 02:00:00 17,1 15,1 15 8 14 8 Z 1007,8 10
18.08.2017 01:00:00 17,1 15,6 13 7 14 8 ZZW 1008,0 10
18.08.2017 00:00:00 17,1 15,8 13 7 14 8 ZZW 1008,2 10
17.08.2017 23:00:00 17,2 15,5 15 8 18 10 ZZW 1008,4 10
17.08.2017 22:00:00 17,1 15,2 15 8 18 10 ZZW 1008,7 10
17.08.2017 21:00:00 17,0 14,2 16 9 22 12 ZZW 1008,5 10
17.08.2017 20:00:00 17,1 14,9 18 10 18 10 ZZW 1008,4 10
17.08.2017 19:00:00 17,4 14,7 16 9 22 12 ZZW 1008,2 10
17.08.2017 18:00:00 16,9 14,5 18 10 18 10 ZZW 1008,3 10
17.08.2017 17:00:00 16,6 14,9 13 7 18 10 ZW 1008,1 10
17.08.2017 16:00:00 16,6 14,9 16 9 18 10 WZW 1008,1 10
17.08.2017 15:00:00 16,2 15,1 16 9 29 16 ZW 1007,9 10
17.08.2017 14:00:00 16,5 15,7 26 14 36 19 ZZW 1007,9 3,2
17.08.2017 13:00:00 16,6 15,3 42 23 47 25 Z 1007,9 6
17.08.2017 12:00:00 16,7 15,0 41 22 50 27 Z 1008,0 5
17.08.2017 11:00:00 16,3 15,3 37 20 43 23 Z 1008,4 1,7
17.08.2017 10:00:00 15,8 14,8 28 15 29 16 ZZO 1009,2 5
17.08.2017 09:00:00 15,7 13,1 29 16 43 23 ZZW 1009,9 5
17.08.2017 08:00:00 17,7 13,7 41 22 43 23 Z 1010,2 10
17.08.2017 07:00:00 17,4 14,5 41 22 43 23 ZZO 1010,3 10
17.08.2017 06:00:00 17,3 14,5 44 24 47 25 ZZO 1010,8 10
17.08.2017 05:00:00 17,3 14,2 44 24 47 25 ZZO 1011,3 10
17.08.2017 04:00:00 17,3 13,8 41 22 40 21 ZZO 1012,4 10
17.08.2017 03:00:00 17,3 13,9 37 20 36 19 ZZO 1013,1 10
17.08.2017 02:00:00 17,1 15,1 37 20 36 19 ZZO 1014,2 10
17.08.2017 01:00:00 17,1 15,9 39 21 36 19 ZZO 1014,7 8
17.08.2017 00:00:00 17,1 15,8 37 20 36 19 ZZO 1015,5 10
16.08.2017 23:00:00 17,1 15,6 37 20 36 19 ZZO 1016,0 10
16.08.2017 22:00:00 17,2 15,9 39 21 40 21 ZZO 1016,5 10
16.08.2017 21:00:00 17,4 16,1 35 19 40 21 ZO 1016,6 10
16.08.2017 20:00:00 17,5 14,9 34 18 40 21 ZO 1017,3 10
16.08.2017 19:00:00 17,3 13,2 34 18 32 18 ZZO 1017,9 10
16.08.2017 18:00:00 17,1 13,3 31 17 32 18 ZZO 1018,1 10
16.08.2017 17:00:00 16,9 12,2 26 14 25 14 ZZO 1018,4 10
16.08.2017 16:00:00 16,8 12,1 21 11 22 12 ZZO 1018,8 10
16.08.2017 15:00:00 16,6 12,2 22 12 22 12 Z 1019,4 10
16.08.2017 14:00:00 16,7 12,3 22 12 22 12 Z 1019,5 10
16.08.2017 13:00:00 16,5 12,3 22 12 22 12 Z 1019,7 10
16.08.2017 12:00:00 16,4 12,5 18 10 18 10 ZZW 1019,7 10
16.08.2017 11:00:00 16,2 12,5 15 8 14 8 ZZW 1019,8 10
16.08.2017 10:00:00 16,1 12,4 13 7 14 8 WZW 1019,4 10
16.08.2017 09:00:00 15,8 12,5 15 8 14 8 WZW 1019,1 10
16.08.2017 08:00:00 16,0 12,3 13 7 14 8 W 1018,6 10
16.08.2017 07:00:00 16,1 12,0 15 8 14 8 W 1018,1 10
16.08.2017 06:00:00 16,3 12,0 14 8 22 12 WNW 1017,4 47
16.08.2017 05:00:00 16,5 11,7 18 10 18 10 WNW 1017,2 10
16.08.2017 04:00:00 16,6 12,7 18 10 22 12 WNW 1016,8 10
16.08.2017 03:00:00 16,5 12,9 18 10 22 12 W 1016,7 10
16.08.2017 02:00:00 16,7 13,1 18 10 18 10 W 1016,5 10
16.08.2017 01:00:00 16,7 13,6 16 9 18 10 WZW 1016,2 10
16.08.2017 00:00:00 16,5 13,9 15 8 18 10 W 1015,9 10
15.08.2017 23:00:00 16,5 13,7 15 8 18 10 W 1015,5 10
15.08.2017 22:00:00 16,3 13,8 16 9 18 10 W 1014,7 10
15.08.2017 21:00:00 16,3 13,4 18 10 22 12 W 1014,1 10
15.08.2017 20:00:00 16,5 13,7 18 10 18 10 WZW 1013,8 10
15.08.2017 19:00:00 16,5 13,5 16 9 22 12 WZW 1013,4 10
15.08.2017 18:00:00 16,9 14,2 21 11 22 12 ZW 1013,2 10
15.08.2017 17:00:00 17,3 14,6 21 11 22 12 ZZW 1013,0 10
15.08.2017 16:00:00 17,4 14,1 21 11 22 12 ZZW 1012,9 10
15.08.2017 15:00:00 17,2 15,0 22 12 25 14 Z 1012,8 10
15.08.2017 14:00:00 17,3 14,8 21 11 18 10 Z 1012,4 10
15.08.2017 13:00:00 17,3 14,6 21 11 22 12 Z 1012,2 10
15.08.2017 12:00:00 17,5 14,7 18 10 22 12 ZZW 1012,4 10
15.08.2017 11:00:00 17,5 14,9 22 12 25 14 ZZW 1012,2 10
15.08.2017 10:00:00 17,6 15,0 24 13 29 16 Z 1011,9 10
15.08.2017 09:00:00 17,5 15,6 24 13 29 16 Z 1011,9 10
15.08.2017 08:00:00 17,5 15,9 29 16 29 16 ZZO 1011,8 10
15.08.2017 07:00:00 17,5 15,9 29 16 32 18 ZZO 1011,8 10
15.08.2017 06:00:00 17,7 15,9 35 19 40 21 ZZO 1012,1 10
15.08.2017 05:00:00 18,1 15,5 39 21 43 23 ZO 1012,3 10
15.08.2017 04:00:00 18,2 15,0 42 23 43 23 ZO 1012,9 10
15.08.2017 03:00:00 18,3 14,8 44 24 43 23 ZO 1013,6 10
15.08.2017 02:00:00 18,3 14,7 44 24 43 23 ZO 1014,6 10
15.08.2017 01:00:00 18,0 14,4 46 25 47 25 ZO 1015,4 10
15.08.2017 00:00:00 17,8 14,0 46 25 43 23 ZO 1016,0 10
14.08.2017 23:00:00 17,7 14,1 41 22 40 21 ZO 1016,6 10
14.08.2017 22:00:00 17,4 14,5 35 19 36 19 ZO 1017,2 10
14.08.2017 21:00:00 16,9 14,7 21 11 29 16 ZO 1017,4 10
14.08.2017 20:00:00 16,9 13,5 28 15 29 16 ZZO 1017,8 10
14.08.2017 19:00:00 16,8 11,8 29 16 29 16 ZZO 1017,8 10
14.08.2017 18:00:00 16,6 12,6 26 14 25 14 ZZO 1018,1 10
14.08.2017 17:00:00 16,9 13,5 24 13 25 14 Z 1018,4 10
14.08.2017 16:00:00 17,0 14,1 28 15 36 19 ZZO 1018,6 10
14.08.2017 15:00:00 16,9 14,6 31 17 32 18 ZZO 1019,0 10
14.08.2017 14:00:00 16,7 13,7 28 15 32 18 ZZO 1019,4 10
14.08.2017 13:00:00 16,7 12,9 34 18 36 19 ZZO 1019,8 10
14.08.2017 12:00:00 16,8 12,7 39 21 36 19 ZZO 1020,0 10
14.08.2017 11:00:00 16,8 11,8 37 20 36 19 ZZO 1020,3 10
14.08.2017 10:00:00 16,9 10,6 39 21 36 19 ZZO 1020,3 10
14.08.2017 09:00:00 15,8 12,4 37 20 36 19 ZZO 1020,6 10
14.08.2017 08:00:00 15,7 11,8 8 4 14 8 OZO 1020,7 10
14.08.2017 07:00:00 15,5 11,3 9 5 11 6 ZZO 1020,7 10
14.08.2017 06:00:00 15,4 10,9 13 7 14 8 Z 1020,8 10
14.08.2017 05:00:00 15,4 10,6 13 7 14 8 Z 1020,9 10
14.08.2017 04:00:00 15,3 10,2 13 7 18 10 ZZW 1021,2 10

tt = temperatuur
td = dauwpunt
ff = windsnelheid
fx = windstoten
dd = windrichting
ppp = luchtdruk
vv = zicht

Weerstations in de omgeving